FW4256 Weather Reports


Display with metric or nautical units.
time (UTC)temp
F
wind
direction
speed
MPH
gust
MPH
rain 1hr
in
rain 24hr
in
rain mn
in
humidity
%
barometer
mb
20260905193057 77 290 1.0 9.0 0.00 0.00 0.00 65 1002.0
20260905191602 78 312 2.0 8.0 0.00 0.00 0.00 64 1002.0
20260905190051 76 351 1.0 9.0 0.00 0.00 0.00 67 1002.1
20260905184556 76 343 3.0 9.0 0.00 0.00 0.00 66 1002.0
20260905183042 75 258 1.0 6.0 0.00 0.00 0.00 67 1002.3
20260905181542 75 338 2.0 9.0 0.00 0.00 0.00 67 1002.3
20260905180046 75 287 1.0 7.0 0.00 0.00 0.00 66 1002.3
20260905174539 75 240 1.0 7.0 0.00 0.00 0.00 70 1002.4
20260905173052 74 336 3.0 10.0 0.00 0.00 0.00 68 1002.6
20260905171531 74 248 1.0 8.0 0.00 0.00 0.00 70 1002.6
20260905170030 73 340 2.0 8.0 0.00 0.00 0.00 70 1002.7
20260905164531 73 20 2.0 5.0 0.00 0.00 0.00 72 1002.4
20260905163027 72 304 4.0 11.0 0.00 0.00 0.00 73 1002.6
20260905161523 72 34 1.0 4.0 0.00 0.00 0.00 75 1002.5
20260905160023 72 308 1.0 4.0 0.00 0.00 0.00 75 1002.6
20260905154520 71 360 0.0 5.0 0.00 0.00 0.00 76 1002.6
20260905153021 70 360 2.0 5.0 0.00 0.00 0.00 76 1002.8
20260905151521 70 360 1.0 8.0 0.00 0.00 0.00 78 1002.8
20260905150015 69 360 1.0 6.0 0.00 0.00 0.00 78 1002.8
20260905144521 69 360 0.0 4.0 0.00 0.00 0.00 81 1002.9
20260905143011 68 360 1.0 6.0 0.00 0.00 0.00 81 1002.7
20260905141511 68 360 0.0 5.0 0.00 0.00 0.00 82 1002.6
20260905140007 67 360 1.0 10.0 0.00 0.00 0.00 83 1002.7
20260905134506 67 360 1.0 8.0 0.00 0.00 0.00 84 1002.7
20260905133003 66 360 1.0 6.0 0.00 0.00 0.00 86 1002.9
20260905131501 65 360 0.0 3.0 0.00 0.00 0.00 87 1002.9
20260905130101 65 360 0.0 3.0 0.00 0.00 0.00 88 1003.0
20260905124600 64 360 0.0 2.0 0.00 0.00 0.00 89 1003.1
20260905123107 63 360 0.0 3.0 0.00 0.00 0.00 90 1003.2
20260905121558 63 360 0.0 3.0 0.00 0.00 0.00 90 1003.2
20260905120100 62 360 0.0 3.0 0.00 0.00 0.00 91 1002.9
20260905114602 62 360 0.0 3.0 0.00 0.01 0.00 92 1002.8
20260905113056 61 360 0.0 3.0 0.00 0.01 0.00 92 1002.6
20260905111556 61 360 1.0 3.0 0.00 0.01 0.00 93 1002.7
20260905110055 60 360 0.0 3.0 0.00 0.01 0.00 93 1002.5
20260905104555 60 360 0.0 0.0 0.00 0.01 0.00 92 1002.4
20260905103057 61 360 0.0 1.0 0.00 0.01 0.00 91 1002.3
20260905101559 61 360 0.0 0.0 0.00 0.01 0.00 90 1002.2
20260905100117 62 360 0.0 1.0 0.00 0.01 0.00 89 1002.2
20260905094550 62 360 0.0 3.0 0.00 0.02 0.00 89 1002.1
20260905093046 62 360 0.0 2.0 0.00 0.02 0.00 89 1001.9
20260905091556 62 360 0.0 2.0 0.00 0.02 0.00 89 1001.8
20260905090044 62 360 0.0 1.0 0.00 0.02 0.00 89 1001.9
20260905084550 62 360 0.0 2.0 0.00 0.13 0.00 88 1001.9
20260905083103 63 360 1.0 4.0 0.00 0.13 0.00 88 1002.0
20260905081541 63 360 1.0 5.0 0.00 0.13 0.00 88 1002.0
20260905080041 63 360 1.0 3.0 0.00 0.13 0.00 88 1002.0
20260905074541 62 360 1.0 3.0 0.00 0.32 0.00 88 1002.0
20260905073040 63 360 0.0 4.0 0.00 0.32 0.00 89 1002.1
20260905071536 63 360 0.0 1.0 0.00 0.32 0.00 88 1002.1
20260905070034 64 360 0.0 2.0 0.00 0.32 0.00 87 1002.2
20260905064533 64 360 0.0 3.0 0.00 0.32 0.00 85 1002.4
20260905063033 64 360 0.0 2.0 0.00 0.32 0.00 85 1002.3
20260905061530 64 360 0.0 2.0 0.00 0.32 0.00 85 1002.3
20260905060040 64 360 0.0 1.0 0.00 0.32 0.00 85 1002.7
20260905054556 64 360 0.0 2.0 0.00 0.32 0.00 85 1002.9
20260905053026 64 360 0.0 2.0 0.00 0.32 0.00 86 1002.9
20260905051523 65 360 0.0 1.0 0.00 0.32 0.00 84 1003.0
20260905050022 66 360 0.0 1.0 0.00 0.32 0.00 83 1003.2
20260905044522 67 360 0.0 3.0 0.00 0.32 0.00 80 1003.3
20260905043021 67 360 1.0 4.0 0.00 0.32 0.00 80 1003.3
20260905041520 66 360 0.0 3.0 0.00 0.32 0.00 82 1003.3
20260905040015 65 360 1.0 3.0 0.00 0.32 0.00 86 1003.4
20260905034515 65 360 0.0 0.0 0.00 0.32 0.32 90 1003.4
20260905033016 65 360 0.0 0.0 0.00 0.32 0.32 90 1003.3
20260905031513 65 360 0.0 1.0 0.00 0.32 0.32 89 1003.2
20260905030014 65 360 0.0 0.0 0.00 0.32 0.32 91 1003.3
20260905024514 66 360 0.0 0.0 0.00 0.32 0.32 92 1003.2
20260905023008 66 360 0.0 0.0 0.00 0.32 0.32 91 1003.1
20260905021507 67 360 0.0 0.0 0.00 0.32 0.32 88 1003.1
20260905020005 67 360 0.0 1.0 0.00 0.32 0.32 87 1003.1
20260905014503 67 360 0.0 0.0 0.00 0.32 0.32 85 1003.1
20260905013001 68 360 0.0 0.0 0.00 0.32 0.32 86 1003.2
20260905011500 68 360 0.0 0.0 0.00 0.32 0.32 89 1003.2
20260905010108 69 360 0.0 0.0 0.00 0.32 0.32 87 1003.1
20260905004600 70 360 0.0 1.0 0.00 0.32 0.32 86 1003.3
20260905003059 70 360 0.0 0.0 0.00 0.32 0.32 85 1003.1
20260905001559 70 360 0.0 0.0 0.00 0.32 0.32 83 1003.0
20260905000059 71 360 0.0 1.0 0.00 0.32 0.32 83 1002.9
20260904234558 71 360 0.0 1.0 0.00 0.32 0.32 82 1002.7
20260904233105 73 311 0.0 0.0 0.00 0.32 0.32 78 1002.6
20260904231606 74 311 0.0 0.0 0.00 0.32 0.32 77 1002.5
20260904230057 75 311 0.0 0.0 0.00 0.32 0.32 75 1002.6
20260904224557 77 311 0.0 0.0 0.00 0.32 0.32 73 1002.6
20260904223058 79 311 0.0 1.0 0.00 0.32 0.32 69 1002.6
20260904221604 80 311 0.0 1.0 0.00 0.32 0.32 67 1002.5
20260904220100 81 310 0.0 3.0 0.00 0.32 0.32 65 1002.4
20260904214556 81 263 0.0 3.0 0.00 0.32 0.32 63 1002.4
20260904213053 82 261 1.0 4.0 0.00 0.32 0.32 59 1002.5
20260904211553 83 294 0.0 3.0 0.00 0.32 0.32 59 1002.5
20260904210055 83 276 0.0 3.0 0.00 0.32 0.32 60 1002.6
20260904204551 82 273 1.0 4.0 0.00 0.33 0.32 61 1002.5
20260904203056 81 287 0.0 4.0 0.00 0.33 0.32 65 1002.5
20260904201555 80 323 1.0 4.0 0.00 0.33 0.32 61 1002.7
20260904200109 83 313 3.0 6.0 0.00 0.33 0.32 58 1002.7
20260904194551 82 280 3.0 7.0 0.00 0.33 0.32 59 1002.5